Regional Weather Roundup
Issued by NWS Albany, NY

Home | Current Version | Previous Version | Graphics & Text | Print | Product List | Glossary Off
Versions: 1 2 3 4 5 6 7 8 9 10 11 12 13 14 15 16 17 18 19 20 21 22 23 24 25 26 27 28 29 30 31 32 33 34 35 36 37 38 39 40 41 42 43 44 45 46 47 48

036
ASUS41 KALY 191210
RWRALY

NEW YORK STATE HOURLY WEATHER ROUNDUP
NATIONAL WEATHER SERVICE ALBANY NY
800 AM EDT THU APR 19 2018

NOTE: "FAIR" INDICATES FEW OR NO CLOUDS BELOW 12,000 FEET WITH NO
SIGNIFICANT WEATHER AND/OR NO OBSTRUCTIONS TO VISIBILITY.

NYZ032-033-038>043-046>054-057>066-NYZ062>081-082-084-191300-
EAST


CITY           SKY/WX    TMP DP  RH WIND       PRES   REMARKS
ALBANY         FLURRIES  36  31  82 NW3       29.75R
GLENS FALLS    MIX PCPN  36  31  82 SW3       29.73R
POUGHKEEPSIE   LGT RAIN  36  33  89 N7        29.72R WCI  30
MONTGOMERY     CLOUDY    36  34  92 NW7       29.73R WCI  30
WHITE PLAINS   LGT RAIN  38  36  92 NE8       29.65F WCI  32
ISLIP          CLOUDY    42  40  92 E6        29.68F
NEW YORK CITY  CLOUDY    42  37  82 N10       29.64F
CENTRAL PARK   CLOUDY    42  38  85 E7        29.63F
$$

NYZ005>009-017-018-044>046-055-056-191300-
CENTRAL


CITY           SKY/WX    TMP DP  RH WIND       PRES   REMARKS
FULTON           N/A    N/A N/A N/A MISG      29.76S
SYRACUSE       LGT SNOW  32  32 100 NW8       29.75S FOG     WCI  25
ROME           LGT SNOW  34  32  92 W6        29.74F FOG     WCI  29
ELMIRA         CLOUDY    33  32  96 CALM      29.73S
BINGHAMTON     LGT SNOW  30  28  92 N6        29.68S FOG     WCI  24
MONTICELLO       N/A    N/A N/A N/A MISG        N/A
$$

NYZ026>034-041>043-087-191300-
NORTH


CITY           SKY/WX    TMP DP  RH WIND       PRES   REMARKS
WATERTOWN      CLOUDY    32  30  92 N5        29.78R WCI  27
FORT DRUM      NOT AVBL
OGDENSBURG     FAIR      33  28  82 NW5       29.76S WCI  29
MASSENA        CLOUDY    34  29  82 NW7       29.76F WCI  28
SARANAC LAKE   CLOUDY    29  26  89 VRB6      29.65F WCI  23
PLATTSBURGH    PTSUNNY   37  29  72 CALM      29.73R
$$

NYZ001>004-010>016-019>021-085-191300-
WEST


CITY           SKY/WX    TMP DP  RH WIND       PRES   REMARKS
NIAGARA FALLS  CLOUDY    35  23  61 N13       29.83R WCI  26
BUFFALO        CLOUDY    32  26  78 N10       29.81R WCI  24
DUNKIRK        CLOUDY    33  28  81 N15G23    29.84R WCI  23
JAMESTOWN      LGT SNOW  28  27  96 N8        29.79R FOG     WCI  20
WELLSVILLE     FRZ RAIN  30  28  92 NW9       29.72R FOG     WCI  22
ROCHESTER      LGT SNOW  33  30  88 NE13      29.79R FOG     WCI  24
PENN YAN       CLOUDY    33  28  81 NW8       29.74R WCI  26
$$

             KEY
       WCI = WIND CHILL INDEX
       VSB = VISIBILITY
       HX  = HEAT INDEX
$$




USA.gov is the U.S. government's official web portal to all federal, state and local government web resources and services.